Location: Fort Wayne
(41.1310°N, 85.1290°W)
Time: 16:08:14
(UTC-04:00)

Cosmos 2219 Rocket - Visible Passes

Search period start: 27 May 2016 00:00
Search period end: 06 June 2016 00:00
Orbit: 829 x 846 km, 71.0° (Epoch: 27 May)

Date Brightness Start Highest point End Pass type
(mag) Time Alt. Az. Time Alt. Az. Time Alt. Az.
27 May 4.2 05:14:19 10° N 05:19:23 33° ENE 05:24:24 10° ESE visible
27 May 5.3 21:50:07 10° W 21:54:11 20° NW 21:58:15 10° N visible
28 May 4.2 04:58:03 10° N 05:03:00 31° ENE 05:07:56 10° ESE visible
28 May 5.2 21:33:34 10° W 21:37:48 21° NW 21:42:02 10° N visible
29 May 4.3 04:41:47 10° N 04:46:38 29° NE 04:51:27 10° ESE visible
30 May 4.4 04:25:31 10° N 04:30:16 27° NE 04:34:58 10° ESE visible
31 May 4.5 04:09:16 10° N 04:13:53 26° NE 04:18:29 10° ESE visible
01 Jun 4.5 03:53:01 10° N 03:57:31 24° NE 04:01:58 10° ESE visible
01 Jun 2.3 05:36:21 10° NNW 05:41:46 52° WSW 05:47:08 10° S visible
02 Jun 4.6 03:36:47 10° N 03:41:07 22° NE 03:45:26 10° ESE visible
02 Jun 2.3 05:19:58 10° NNW 05:25:27 56° WSW 05:30:53 10° S visible
03 Jun 4.6 03:20:33 10° N 03:24:45 21° NE 03:28:54 10° E visible
03 Jun 2.2 05:03:37 10° NNW 05:09:08 61° WSW 05:14:37 10° S visible
04 Jun 4.6 03:04:20 10° N 03:08:21 20° NE 03:12:21 10° E visible
04 Jun 2.1 04:47:16 10° NNW 04:52:49 66° WSW 04:58:19 10° S visible
05 Jun 4.7 02:48:08 10° N 02:51:58 19° NE 02:55:47 10° E visible
05 Jun 2.1 04:30:55 10° NNW 04:36:30 72° WSW 04:42:02 10° SSE visible
